This demonstration page uses our WeatherBlox Daily Observations layout. Learn more.

36.17497, -115.13722

Hourly Observations for April 25, 2015

Temp ( °F °C ) Dew Point ( °F °C ) Humidity (%) Winds ( mph kmh ) Pressure ( in mb ) Visibility ( mi km ) Precip ( " mm )
12:53 am 00:53 Clear 62 16.7 37 2.8 40 40 SE 5 7 29.78 1008 10 16.0934 0 0
1:53 am 01:53 Clear 60 15.6 36 2.2 41 41 E 8 13 29.77 1008 10 16.0934 0 0
2:53 am 02:53 Clear 59 15 36 2.2 42 42 ESE 8 13 29.76 1008 10 16.0934 0 0
3:53 am 03:53 Clear 58 14.4 36 2.2 44 44 E 8 13 29.77 1008 10 16.0934 0 0
4:53 am 04:53 Mostly Cloudy 58 14.4 35 1.7 42 42 ESE 7 11 29.75 1008 10 16.0934 0 0
5:53 am 05:53 Clear 56 13.3 35 1.7 46 46 ESE 6 9 29.77 1008 10 16.0934 0 0
6:53 am 06:53 Mostly Sunny 58 14.4 35 1.7 42 42 S 8 13 29.77 1008 10 16.0934 0 0
7:53 am 07:53 Mostly Cloudy 59 15 33 0.6 38 38 S 15 24 29.77 1008 10 16.0934 0 0
8:53 am 08:53 Mostly Cloudy 61 16.1 32 0 34 34 S 14 22 29.76 1008 10 16.0934 0 0
9:53 am 09:53 Mostly Cloudy 62 16.7 31 -0.6 31 31 S 16 26 29.76 1008 10 16.0934 0 0
10:53 am 10:53 Partly Cloudy 63 17.2 30 -1.1 29 29 S 16 26 29.75 1008 10 16.0934 0 0
11:53 am 11:53 Mostly Sunny 63 17.2 28 -2.2 27 27 SSW 17 28 29.73 1007 10 16.0934 0 0
12:53 pm 12:53 Sunny 66 18.9 28 -2.2 24 24 S 18 30 29.7 1006 10 16.0934 0 0
1:53 pm 13:53 Sunny 68 20 29 -1.7 23 23 S 18 30 29.67 1005 10 16.0934 0 0
2:53 pm 14:53 Mostly Cloudy 70 21.1 29 -1.7 22 22 SSW 17 28 29.65 1004 10 16.0934 0 0
3:53 pm 15:53 Mostly Cloudy 69 20.6 31 -0.6 24 24 WSW 16 26 29.63 1003 10 16.0934 0 0
4:53 pm 16:53 Cloudy 63 17.2 35 1.7 35 35 WNW 26 43 29.67 1005 10 16.0934 0 0
5:00 pm 17:00 Cloudy with Light Rain 61 16 41 5 48 48 NW 38 61 29.62 1003 8 12.87472 0 0
5:53 pm 17:53 Cloudy with Light Rain 55 12.8 42 5.6 62 62 WNW 24 39 29.75 1007 10 16.0934 0 0
6:53 pm 18:53 Cloudy with Light Rain 56 13.3 39 3.9 53 53 NW 14 22 29.75 1008 10 16.0934 0 0
7:53 pm 19:53 Mostly Cloudy 53 11.7 46 7.8 77 77 ESE 8 13 29.75 1008 10 16.0934 0 0
8:53 pm 20:53 Clear 53 11.7 45 7.2 74 74 Calm 29.77 1008 10 16.0934 0 0
9:53 pm 21:53 Clear 54 12.2 45 7.2 72 72 W 3 6 29.79 1009 10 16.0934 0 0
10:53 pm 22:53 Mostly Cloudy 54 12.2 44 6.7 69 69 W 7 11 29.8 1009 10 16.0934 0 0
11:53 pm 23:53 Mostly Cloudy 55 12.8 38 3.3 53 53 NW 16 26 29.8 1009 10 16.0934 0 0

Powered by AerisWeather